Meteopurmerend
purmerend
Purmerend - Baaienwijk



My webcam  My webcam


waarschuwing voor Onweer Meer informatie blitzortung!


Regen radar Meer informatie rain snow radar


Bezoek onze andere website:

CandyAppleRed WebdesignWebdesign Purmerend Candy Apple Red

MeteopurmerendBlog

Template documentation
and downloads



Onweer van: 26-07-2021 13:00 tot: 21:00 waarschuwing voor: Onweer niveau: Geel info button
Enkele onweersbuien, lokaal met hagel en veel neerslag in korte tijd.Kans op blikseminslag, hagel en veel neerslag in korte tijd.Verkeer en buitenactiviteiten kunnen hinder ondervinden.Mijd open water en open gebied, schuil niet onder bomen.Volg weerberichten en waarschuwingen.

15 daagse weersverwachting Halden (NO)

  • Overzicht
  • Per uur
  • 15 dagen
  • Extra
  • Vergelijk
  • Kaarten
  • Dagkaart
  • Meer »
  • Info
  • Statistieken
  • Directe link
    Temp 6h Neerslag Wind  
 04:52     21:52    Daglengte: 17:00 Vandaag
20:00
23°
0.2 mm
3
 04:54     21:50    Daglengte: 16:56 Morgen
02:00
20°
 
3
08:00
20°
 
3
14:00
21°
1.6 mm
3
warningclass
20:00
20°
20.7 mm
2
warningclass
 04:56     21:48    Daglengte: 16:52 Woensdag 28 Jul
02:00
18°
10.1 mm
1
08:00
19°
 
2
14:00
20°
21.9 mm
4
20:00
19°
 
3
 04:58     21:45    Daglengte: 16:47 Donderdag 29 Jul
02:00
17°
4.3 mm
3
08:00
17°
22.5 mm
3
Locatie info
Region: Østfold
Latitude: 59.1215°N
Longitude: 11.3845°E
15 masl
Postcode: 1771
Temp/Neerslag /Baro Onweer/Dauwpunt
    Temp Baro 1h Neerslag Dauwpunt Wind UV Bewolking  
 04:52     21:52    Daglengte: 17:00 Vandaag
15:00
24°
1014.5 hPa
47%
17.2°
4
Windvlaag: 2.7 m/s
86%
16:00
24°
1014.2 hPa 0.2 mm
76%
16.8°
4
Windvlaag: 3.5 m/s
84%
17:00
25°
1013.9 hPa
72%
16.8°
4
Windvlaag: 2.7 m/s
66%
18:00
24°
1013.7 hPa
79%
16.2°
4
Windvlaag: 2.5 m/s
65%
19:00
24°
1013.3 hPa
34%
16.6°
3
Windvlaag: 2.2 m/s
79%
20:00
23°
1013.0 hPa
16%
18.1°
3
Windvlaag: 2.1 m/s
69%
21:00
22°
1013.0 hPa
14%
18.3°
3
Windvlaag: 1.2 m/s
37%
22:00
22°
1013.0 hPa
14%
18.0°
3
Windvlaag: 2.5 m/s
79%
23:00
21°
1013.0 hPa
15%
18.2°
3
Windvlaag: 1.5 m/s
86%
 04:54     21:50    Daglengte: 16:56 Morgen
00:00
21°
1012.8 hPa
54%
18.0°
3
Windvlaag: 1.3 m/s
79%
01:00
20°
1012.6 hPa
62%
18.3°
3
Windvlaag: 1.4 m/s
75%
02:00
20°
1012.5 hPa
18%
19.1°
3
Windvlaag: 0.7 m/s
84%
03:00
20°
1012.3 hPa
14%
18.8°
3
Windvlaag: 2.4 m/s
77%
04:00
19°
1012.2 hPa
19%
18.5°
3
Windvlaag: 3.7 m/s
84%
05:00
19°
1011.8 hPa
65%
18.5°
3
Windvlaag: 3.8 m/s
84%
06:00
19°
1011.5 hPa
15%
18.3°
3
Windvlaag: 0.7 m/s
78%
07:00
20°
1011.2 hPa
30%
18.6°
3
Windvlaag: 0.4 m/s
83%
08:00
20°
1011.2 hPa
77%
18.8°
3
Windvlaag: -1.2 m/s
86%
09:00
20°
1011.0 hPa 1.6 mm
82%
18.3°
3
Windvlaag: -2.3 m/s
85%
10:00
20°
1010.6 hPa
79%
18.3°
4
Windvlaag: -3.6 m/s
86%
11:00
19°
1010.3 hPa
82%
18.2°
4
Windvlaag: -2.7 m/s
70%
12:00
20°
1009.9 hPa
82%
18.8°
4
Windvlaag: -4.2 m/s
86%
13:00
21°
1009.6 hPa
82%
19.0°
4
Windvlaag: -1.9 m/s
86%
14:00
21°
1009.2 hPa
82%
18.5°
3
Windvlaag: -1.8 m/s
84%
15:00
21°
1008.7 hPa 1.6 mm
82%
20.3°
3
Windvlaag: 0.7 m/s
86% warningclass
16:00
22°
1008.5 hPa 3.0 mm
82%
20.2°
4
Windvlaag: 2.3 m/s
85% warningclass
17:00
21°
1008.2 hPa 3.9 mm
82%
19.3°
3
Windvlaag: 1.8 m/s
75% warningclass
18:00
21°
1007.7 hPa 4.0 mm
82%
18.7°
3
Windvlaag: -0.1 m/s
70% warningclass
19:00
20°
1007.7 hPa 3.5 mm
82%
18.5°
2
Windvlaag: 0.9 m/s
70% warningclass
20:00
20°
1007.3 hPa 4.7 mm
82%
18.8°
2
Windvlaag: 1.5 m/s
67% warningclass
21:00
20°
1007.4 hPa 3.5 mm
82%
19.1°
2
Windvlaag: 1.7 m/s
75% warningclass
22:00
19°
1007.4 hPa 3.8 mm
81%
19.0°
1
Windvlaag: 2.4 m/s
71% warningclass
23:00
19°
1007.4 hPa 2.8 mm
82%
18.9°
1
Windvlaag: 2.3 m/s
70% warningclass
 04:56     21:48    Daglengte: 16:52 Woensdag 28 Jul
00:00
19°
1007.2 hPa
80%
18.6°
1
Windvlaag: 2.1 m/s
45%
01:00
18°
1006.8 hPa
72%
18.1°
1
Windvlaag: 2.7 m/s
59%
02:00
18°
1006.5 hPa
68%
17.5°
1
Windvlaag: 2.3 m/s
58%
03:00
18°
1006.2 hPa
22%
17.5°
2
Windvlaag: 3.7 m/s
58%
04:00
18°
1005.9 hPa
18%
17.3°
2
Windvlaag: 4.4 m/s
37%
05:00
17°
1005.5 hPa
15%
17.0°
2
Windvlaag: 3.7 m/s
62%
06:00
17°
1005.5 hPa
16%
17.2°
2
Windvlaag: 4.2 m/s
76%
07:00
18°
1005.4 hPa
25%
17.5°
2
Windvlaag: 3.9 m/s
63%
08:00
19°
1005.3 hPa
69%
18.0°
2
Windvlaag: 3.9 m/s
46%
09:00
19°
1005.2 hPa 2.8 mm
82%
17.9°
3
Windvlaag: 4.8 m/s
34%
10:00
19°
1005.3 hPa 4.0 mm
82%
16.7°
3
Windvlaag: 5.6 m/s
63%
11:00
19°
1004.7 hPa 3.1 mm
99%
15.4°
4
Windvlaag: 4.1 m/s
84%
12:00
20°
1004.5 hPa 2.7 mm
97%
15.3°
4
Windvlaag: 5.2 m/s
77%
13:00
19°
1004.4 hPa 5.0 mm
60%
14.4°
4
Windvlaag: 5.4 m/s
72%
14:00
20°
1004.2 hPa 4.3 mm
97%
15.1°
4
Windvlaag: 5.5 m/s
73%
15:00
20°
1003.9 hPa
48%
15.8°
4
Windvlaag: 5.4 m/s
66%
16:00
20°
1003.8 hPa
34%
15.7°
4
Windvlaag: 5.5 m/s
64%
17:00
20°
1003.4 hPa
24%
15.3°
4
Windvlaag: 5.6 m/s
61%
18:00
20°
1003.0 hPa
30%
16.1°
4
Windvlaag: 5.6 m/s
71%
19:00
19°
1002.5 hPa
34%
15.5°
3
Windvlaag: 5.7 m/s
71%
20:00
19°
1002.1 hPa
39%
16.3°
3
Windvlaag: 6.1 m/s
46%
21:00
18°
1002.0 hPa
77%
16.1°
3
Windvlaag: 5.7 m/s
27%
22:00
18°
1001.7 hPa
33%
16.1°
2
Windvlaag: 5.3 m/s
34%
23:00
17°
1001.4 hPa
78%
15.9°
2
Windvlaag: 4.4 m/s
60%
 04:58     21:45    Daglengte: 16:47 Donderdag 29 Jul
00:00
17°
1001.0 hPa
78%
16.0°
2
Windvlaag: 4.3 m/s
85%
01:00
17°
1000.7 hPa
81%
15.7°
3
Windvlaag: 4.3 m/s
94%
02:00
17°
1000.2 hPa 4.3 mm
84%
15.8°
3
Windvlaag: 4.4 m/s
90%
03:00
17°
999.7 hPa 2.6 mm
100%
15.7°
2
Windvlaag: 4.3 m/s
78%
04:00
16°
999.2 hPa 2.7 mm
100%
15.9°
3
Windvlaag: 5.1 m/s
83%
05:00
16°
998.6 hPa 2.8 mm
99%
15.7°
3
Windvlaag: 4.6 m/s
79%
06:00
17°
998.5 hPa 4.4 mm
100%
15.3°
3
Windvlaag: 4.6 m/s
88%
07:00
16°
998.1 hPa 4.9 mm
100%
15.3°
3
Windvlaag: 4.4 m/s
75%
08:00
17°
998.0 hPa 5.0 mm
100%
14.9°
3
Windvlaag: 5.8 m/s
69%
09:00
17°
995.4 hPa 5.3 mm
100%
15.0°
3
Windvlaag: 9 m/s
100% warningclass
10:00
17°
995.1 hPa 5.5 mm
100%
15.2°
3
Windvlaag: 9.3 m/s
100% warningclass
11:00
17°
995.0 hPa 5.5 mm
100%
13.3°
4
Windvlaag: 9.7 m/s
96%
12:00
17°
994.6 hPa 5.5 mm
100%
11.1°
4
Windvlaag: 8.9 m/s
92%
13:00
17°
994.4 hPa 6.0 mm
100%
12.6°
4
Windvlaag: 8.8 m/s
96% warningclass
14:00
17°
994.1 hPa 5.7 mm
100%
10.5°
5
Windvlaag: 9 m/s
97%
Temp/Neerslag /Baro Onweer/Dauwpunt
    Temp Baro Neerslag Dauwpunt Wind Bewolking  
 04:52     21:52    Daglengte: 17:00 Vandaag
17:00
25°
1013.9 hPa 0.2 mm 16.8°
4
66%
20:00
23°
1013.0 hPa   18.1°
3
69%
23:00
21°
1013.0 hPa   18.2°
3
86%
 04:54     21:50    Daglengte: 16:56 Morgen
02:00
20°
1012.5 hPa   19.1°
3
84%
05:00
19°
1011.8 hPa   18.5°
3
84%
08:00
20°
1011.2 hPa   18.8°
3
86%
11:00
19°
1010.3 hPa 1.6 mm 18.2°
4
70%
14:00
21°
1009.2 hPa   18.5°
3
84%
17:00
21°
1008.2 hPa 8.5 mm 19.3°
3
75% warningclass
20:00
20°
1007.3 hPa 12.2 mm 18.8°
2
67% warningclass
23:00
19°
1007.4 hPa 10.1 mm 18.9°
1
70% warningclass
 04:56     21:48    Daglengte: 16:52 Woensdag 28 Jul
02:00
18°
1006.5 hPa   17.5°
1
58%
05:00
17°
1005.5 hPa   17.0°
2
62%
08:00
19°
1005.3 hPa   18.0°
2
46%
11:00
19°
1004.7 hPa 9.9 mm 15.4°
4
84%
14:00
20°
1004.2 hPa 12.0 mm 15.1°
4
73%
17:00
20°
1003.4 hPa   15.3°
4
61%
20:00
19°
1002.1 hPa   16.3°
3
46%
23:00
17°
1001.4 hPa   15.9°
2
60%
 04:58     21:45    Daglengte: 16:47 Donderdag 29 Jul
02:00
17°
1000.2 hPa 4.3 mm 15.8°
3
90%
05:00
16°
998.6 hPa 8.1 mm 15.7°
3
79%
08:00
17°
998.0 hPa 14.4 mm 14.9°
3
69%
11:00
17°
995.0 hPa 16.3 mm 13.3°
4
96%
14:00
17°
994.1 hPa 17.2 mm 10.5°
5
97%
17:00
15°
995.4 hPa 29.0 mm 13.0°
3
1%
20:00
14°
994.2 hPa 29.8 mm 12.3°
4
1%
23:00
13°
993.3 hPa 30.1 mm 12.2°
3
1%
 05:00     21:43    Daglengte: 16:43 Vrijdag 30 Jul
02:00
14°
991.7 hPa 30.9 mm 13.0°
3
1%
05:00
14°
990.9 hPa 30.9 mm 13.2°
2
1%
08:00
16°
991.5 hPa 30.9 mm 14.2°
2
1%
11:00
21°
992.3 hPa 30.9 mm 12.5°
2
0%
14:00
22°
993.1 hPa 31.0 mm 12.1°
2
0%
17:00
22°
994.0 hPa 31.1 mm 12.4°
3
1%
20:00
20°
994.9 hPa 31.1 mm 14.0°
2
0%
23:00
15°
996.3 hPa 31.1 mm 12.9°
1
0%
 05:03     21:41    Daglengte: 16:38 Zaterdag 31 Jul
02:00
13°
997.2 hPa 31.1 mm 11.8°
2
0%
05:00
12°
997.3 hPa 31.1 mm 12.0°
2
1%
08:00
16°
997.2 hPa 31.1 mm 11.6°
3
1%
11:00
20°
997.2 hPa 31.1 mm 10.4°
4
1%
14:00
21°
996.8 hPa 31.2 mm 12.7°
6
1%
17:00
19°
997.6 hPa 31.3 mm 12.9°
5
1%
20:00
17°
997.7 hPa 31.3 mm 12.2°
5
1%
23:00
14°
997.5 hPa 31.3 mm 12.6°
3
1%
 05:05     21:38    Daglengte: 16:33 Zondag 01 Aug
02:00
12°
996.6 hPa 31.3 mm 11.5°
2
1%
05:00
12°
996.1 hPa 31.3 mm 11.3°
2
1%
08:00
16°
995.6 hPa 31.3 mm 11.2°
2
1%
11:00
18°
995.7 hPa 31.4 mm 9.7°
4
1%
14:00
18°
995.8 hPa 31.4 mm 10.6°
4
1%
17:00
18°
995.6 hPa 31.5 mm 10.8°
4
1%
20:00
16°
995.3 hPa 31.8 mm 12.6°
2
1%
23:00
13°
995.5 hPa 32.2 mm 12.5°
1
1%
 05:07     21:36    Daglengte: 16:29 Maandag 02 Aug
02:00
11°
995.6 hPa 32.2 mm 11.1°
2
1%
05:00
11°
996.4 hPa 32.2 mm 10.3°
2
0%
08:00
12°
997.1 hPa 32.2 mm 10.7°
3
1%
11:00
16°
998.0 hPa 32.2 mm 7.3°
3
1%
14:00
17°
998.6 hPa 64.5 mm 8.6°
2
1%
20:00
16°
998.7 hPa 64.7 mm 9.6°
3
1%
 05:09     21:34    Daglengte: 16:25 Dinsdag 03 Aug
02:00
11°
999.4 hPa 65.4 mm 9.2°
1
0%
08:00
13°
1002.1 hPa 65.7 mm 6.0°
2
0%
14:00
19°
1002.9 hPa 65.7 mm 4.4°
4
0%
20:00
18°
1002.6 hPa 65.8 mm 8.6°
5
0%
 05:11     21:31    Daglengte: 16:20 Woensdag 04 Aug
02:00
14°
1004.4 hPa 65.8 mm 8.3°
4
0%
08:00
16°
1004.1 hPa 65.9 mm 11.7°
2
1%
14:00
15°
1000.5 hPa 71.7 mm 14.7°
3
1%
20:00
15°
998.1 hPa 100.3 mm 14.1°
4
1%
 05:14     21:29    Daglengte: 16:15 Donderdag 05 Aug
02:00
14°
996.3 hPa 112.0 mm 13.4°
3
1%
08:00
14°
993.8 hPa 132.9 mm 13.2°
3
1%
14:00
19°
1007.1 hPa 2.1 mm 11.4°
1
69%
20:00
17°
1006.2 hPa 1.5 mm 12.5°
1
71%
 05:16     21:26    Daglengte: 16:10 Vrijdag 06 Aug
02:00
13°
1006.7 hPa 0.5 mm 11.2°
1
63%
08:00
14°
1006.2 hPa 1.8 mm 11.0°
1
62%
14:00
19°
1005.7 hPa 0.6 mm 11.4°
1
69%
20:00
17°
1004.8 hPa 1.3 mm 12.3°
1
65%
 05:18     21:24    Daglengte: 16:06 Zaterdag 07 Aug
02:00
13°
1005.3 hPa 0.5 mm 11.2°
1
64%
08:00
15°
1005.2 hPa 0.6 mm 11.7°
1
61%
14:00
19°
1005.1 hPa 1.5 mm 11.9°
3
63%
20:00
17°
1004.7 hPa 1.0 mm 12.2°
2
66%
 05:20     21:21    Daglengte: 16:01 Zondag 08 Aug
02:00
13°
1005.8 hPa 0.6 mm 11.2°
0
61%
08:00
15°
1006.2 hPa 0.5 mm 11.8°
0
61%
14:00
19°
1006.7 hPa 1.0 mm 12.2°
2
66%
20:00
17°
1006.7 hPa 0.9 mm 12.7°
2
65%
 05:23     21:18    Daglengte: 15:55 Maandag 09 Aug
02:00
14°
1007.9 hPa 0.4 mm 12.0°
1
66%
08:00
15°
1008.2 hPa 0.4 mm 12.0°
1
69%
14:00
19°
1008.7 hPa 0.8 mm 12.1°
2
67%
20:00
17°
1008.6 hPa 2.1 mm 12.8°
2
59%
 05:25     21:16    Daglengte: 15:51 Dinsdag 10 Aug
02:00
14°
1009.7 hPa 0.9 mm 11.7°
1
51%
08:00
15°
1009.9 hPa 0.7 mm 11.7°
1
59%
14:00
20°
1009.9 hPa 0.9 mm 11.5°
3
56%
  CAPE Lifted Index Hail Supercell Tornado SRH 3km CL BTM PRES CL TOP PRES Swiss DWD icon SMHI TS
 04:52     21:52    Daglengte: 17:00 Vandaag
15:00 180 J/kg -1.0 K 0 % 0 % 0 % 0 m²/s² 0 0 -0.34 3
16:00 413 J/kg -1.7 K 0 % 0 % 0 % 0 m²/s² 0 0 0.07 3
17:00 706 J/kg -2.8 K 0 % 0 % 0 % 0 m²/s² 0 0 -1.87 3
18:00 820 J/kg -2.9 K 0 % 0 % 0 % 0 m²/s² 0 0 -2.15 3
19:00 868 J/kg -3.5 K 0 % 0 % 0 % 0 m²/s² 0 0 -2.84 3
20:00 454 J/kg -2.0 K 0 % 0 % 0 % 0 m²/s² 0 0 -1.64 3
21:00 242 J/kg -1.2 K 0 % 0 % 0 % 0 m²/s² 0 0 -0.66 3
22:00 0 J/kg 1.3 K 0 % 0 % 0 % 0 m²/s² 0 0 1.75 3
23:00 0 J/kg -0.1 K 0 % 0 % 0 % 0 m²/s² 0 0 0.29 3
 04:54     21:50    Daglengte: 16:56 Morgen
00:00 0 J/kg -0.8 K 0 % 0 % 0 % 0 m²/s² 0 0 -0.17 3
01:00 36 J/kg -0.3 K 0 % 0 % 0 % 0 m²/s² 0 0 -0.21 3
02:00 102 J/kg -2.0 K 0 % 0 % 0 % 0 m²/s² 0 0 -1.28 3
03:00 67 J/kg -2.3 K 0 % 0 % 0 % 0 m²/s² 0 0 -1.82 3
04:00 58 J/kg -2.1 K 0 % 0 % 0 % 0 m²/s² 0 0 -0.69 3
05:00 79 J/kg -1.2 K 0 % 0 % 0 % 0 m²/s² 0 0 -0.54 3
06:00 54 J/kg -0.4 K 0 % 0 % 0 % 0 m²/s² 0 0 0.32 3
07:00 188 J/kg -0.8 K 0 % 0 % 0 % 0 m²/s² 0 0 -0.59 3
08:00 325 J/kg -1.6 K 0 % 0 % 0 % 0 m²/s² 0 0 -1.6 3
09:00 599 J/kg -2.2 K 0 % 0 % 0 % 0 m²/s² 0 0 -1.93 61
10:00 660 J/kg -2.3 K 0 % 0 % 0 % 0 m²/s² 0 0 -1.49 3
11:00 554 J/kg -1.8 K 0 % 0 % 0 % 0 m²/s² 0 0 -0.84 80
12:00 435 J/kg -1.7 K 0 % 0 % 0 % 0 m²/s² 0 0 0.04 61
13:00 1301 J/kg -3.9 K 0 % 0 % 0 % 0 m²/s² 0 0 -1.98 3
14:00 1470 J/kg -4.3 K 0 % 0 % 0 % 0 m²/s² 0 0 -2.74 80
15:00 1420 J/kg -4.7 K 0 % 0 % 0 % 0 m²/s² 0 0 -3.26 3
16:00 1371 J/kg -4.1 K 0 % 0 % 0 % 0 m²/s² 0 0 -2.12 95
17:00 875 J/kg -3.5 K 0 % 0 % 0 % 0 m²/s² 0 0 -2.06 95
18:00 459 J/kg -2.2 K 0 % 0 % 0 % 0 m²/s² 0 0 -0.67 95
19:00 494 J/kg -2.1 K 0 % 0 % 0 % 0 m²/s² 0 0 -0.33 95
20:00 867 J/kg -3.3 K 0 % 0 % 0 % 0 m²/s² 0 0 -1.32 95
21:00 1005 J/kg -4.0 K 0 % 0 % 0 % 0 m²/s² 0 0 -2.17 95
22:00 1112 J/kg -3.7 K 0 % 0 % 0 % 0 m²/s² 0 0 -2.26 80
23:00 808 J/kg -3.0 K 0 % 0 % 0 % 0 m²/s² 0 0 -2.25 95
 04:56     21:48    Daglengte: 16:52 Woensdag 28 Jul
00:00 656 J/kg -3.0 K 0 % 0 % 0 % 0 m²/s² 0 0 -2.19 80
01:00 621 J/kg -2.5 K 0 % 0 % 0 % 0 m²/s² 0 0 -1.3 80
02:00 457 J/kg -2.0 K 0 % 0 % 0 % 0 m²/s² 0 0 -0.41 80
03:00 436 J/kg -1.9 K 0 % 0 % 0 % 0 m²/s² 0 0 -0.31 3
04:00 303 J/kg -1.0 K 0 % 0 % 0 % 0 m²/s² 0 0 0.71 2
05:00 295 J/kg -1.2 K 0 % 0 % 0 % 0 m²/s² 0 0 0.75 2
06:00 223 J/kg -1.4 K 0 % 0 % 0 % 0 m²/s² 0 0 0.49 3
07:00 402 J/kg -1.4 K 0 % 0 % 0 % 0 m²/s² 0 0 0.61 3
08:00 569 J/kg -1.8 K 0 % 0 % 0 % 0 m²/s² 0 0 0.36 3
09:00 378 J/kg -1.2 K 0 % 0 % 0 % 0 m²/s² 0 0 1.11 80
10:00 117 J/kg 0.4 K 0 % 0 % 0 % 0 m²/s² 0 0 2.5 80
11:00 125 J/kg 0.1 K 0 % 0 % 0 % 0 m²/s² 0 0 2.32 80
12:00 94 J/kg 0.4 K 0 % 0 % 0 % 0 m²/s² 0 0 2.77 3
13:00 56 J/kg 0.8 K 0 % 0 % 0 % 0 m²/s² 0 0 3.53 2
14:00 45 J/kg 0.5 K 0 % 0 % 0 % 0 m²/s² 0 0 3.47 3
15:00 24 J/kg 0.7 K 0 % 0 % 0 % 0 m²/s² 0 0 3.67 3
16:00 14 J/kg 0.6 K 0 % 0 % 0 % 0 m²/s² 0 0 3.75 2
17:00 36 J/kg 0.1 K 0 % 0 % 0 % 0 m²/s² 0 0 3.49 2
18:00 57 J/kg -0.2 K 0 % 0 % 0 % 0 m²/s² 0 0 3.37 2
19:00 96 J/kg -0.6 K 0 % 0 % 0 % 0 m²/s² 0 0 2.22 2
20:00 264 J/kg -1.3 K 0 % 0 % 0 % 0 m²/s² 0 0 0.92 2
21:00 262 J/kg -1.1 K 0 % 0 % 0 % 0 m²/s² 0 0 1.12 2
22:00 331 J/kg -1.6 K 0 % 0 % 0 % 0 m²/s² 0 0 0.68 2
23:00 338 J/kg -1.5 K 0 % 0 % 0 % 0 m²/s² 0 0 0.51 3
 04:58     21:45    Daglengte: 16:47 Donderdag 29 Jul
00:00 368 J/kg -1.6 K 0 % 0 % 0 % 0 m²/s² 0 0 -0.31 3
01:00 380 J/kg -1.6 K 0 % 0 % 0 % 0 m²/s² 0 0 -0.82 3
02:00 389 J/kg -1.8 K 0 % 0 % 0 % 0 m²/s² 0 0 -0.66 3
03:00 339 J/kg -1.6 K 0 % 0 % 0 % 0 m²/s² 0 0 -0.52 3
04:00 375 J/kg -1.9 K 0 % 0 % 0 % 0 m²/s² 0 0 -0.46 80
05:00 386 J/kg -1.8 K 0 % 0 % 0 % 0 m²/s² 0 0 -0.51 3
06:00 426 J/kg -2.0 K 0 % 0 % 0 % 0 m²/s² 0 0 -1.91 3
07:00 23 J/kg 0.1 K 0 % 0 % 0 % 0 m²/s² 0 0 1.6 80
08:00 376 J/kg -2.1 K 0 % 0 % 0 % 0 m²/s² 0 0 -0.24 80
09:00 822 J/kg -3.8 K 0 % 0 % 0 % 0 m²/s² 0 0 -2.15 80
10:00 963 J/kg -4.6 K 0 % 0 % 0 % 0 m²/s² 0 0 -2.32 80
11:00 864 J/kg -4.1 K 0 % 0 % 0 % 0 m²/s² 0 0 -1.4 80
12:00 564 J/kg -3.0 K 0 % 0 % 0 % 0 m²/s² 0 0 0.21 80
13:00 964 J/kg -4.7 K 0 % 0 % 0 % 0 m²/s² 0 0 -2 80
14:00 762 J/kg -3.9 K 0 % 0 % 0 % 0 m²/s² 0 0 -0.63 80
Temp Baro Wind Neerslag
  EWN Forecast EWN WRFDA DWD ICON FMI HIRLAM MET Norway GFS
 04:52     21:52    Daglengte: 17:00 Vandaag
17:00 24.6° 1013.9 hPa 3.9 m/s 0.2 mm 27.3° 1012.5 hPa 5.2 m/s 0.0 mm 24.2° 1014.2 hPa 3.7 m/s -1.6 mm 25.5° 1013.6 hPa 3.5 m/s 0.0 mm 26.5° 1013.1 hPa 3.0 m/s
20:00 22.9° 1013.0 hPa 2.9 m/s 0.0 mm 19.5° 1013.2 hPa 3.0 m/s 1.2 mm 22.6° 1013.0 hPa 3.4 m/s 0.2 mm 24.3° 1012.7 hPa 2.5 m/s 0.0 mm 19.2° 1013.2 hPa 1.2 m/s
23:00 21.3° 1013.0 hPa 2.8 m/s 0.0 mm 18.1° 1011.7 hPa 4.9 m/s 3.4 mm 20.9° 1013.1 hPa 3.0 m/s 0.0 mm 22.0° 1012.8 hPa 2.5 m/s 0.0 mm 18.0° 1013.1 hPa 3.5 m/s
 04:54     21:50    Daglengte: 16:56 Morgen
02:00 19.9° 1012.5 hPa 2.9 m/s 0.0 mm 18.7° 1011.4 hPa 1.7 m/s 9.5 mm 20.2° 1012.1 hPa 2.8 m/s 0.1 mm 19.7° 1012.7 hPa 2.3 m/s 0.0 mm 17.2° 1013.1 hPa 2.1 m/s
05:00 19.2° 1011.8 hPa 2.7 m/s 0.0 mm 17.9° 1010.3 hPa 4.6 m/s 17.7 mm 19.4° 1011.2 hPa 2.5 m/s 0.0 mm 18.9° 1012.0 hPa 2.9 m/s 0.0 mm 16.8° 1012.1 hPa 3.1 m/s
08:00 19.8° 1011.2 hPa 3.3 m/s 0.0 mm 19.5° 1009.7 hPa 2.2 m/s 18.1 mm 20.0° 1010.8 hPa 3.9 m/s 0.1 mm 20.0° 1011.3 hPa 3.2 m/s 0.0 mm 17.9° 1011.7 hPa 2.5 m/s
11:00 19.3° 1010.3 hPa 3.8 m/s 1.6 mm 20.9° 1008.3 hPa 4.5 m/s 19.3 mm 21.1° 1010.5 hPa 2.8 m/s 0.9 mm 18.8° 1010.5 hPa 3.7 m/s 0.0 mm 18.5° 1010.6 hPa 2.9 m/s
14:00 21.3° 1009.2 hPa 3.4 m/s 0.0 mm 24.2° 1007.2 hPa 3.6 m/s 20.6 mm 20.7° 1009.7 hPa 2.2 m/s 1.6 mm 21.7° 1008.8 hPa 4.1 m/s 0.0 mm 19.0° 1009.2 hPa 4.5 m/s
17:00 20.8° 1008.2 hPa 3.2 m/s 8.5 mm 22.7° 1007.4 hPa 2.2 m/s 28.9 mm 20.6° 1008.4 hPa 1.6 m/s 4.5 mm 21.5° 1007.5 hPa 3.8 m/s 0.0 mm 19.3° 1008.1 hPa 3.8 m/s
20:00 19.9° 1007.3 hPa 1.8 m/s 12.2 mm 22.8° 1005.8 hPa 2.0 m/s 33.0 mm 19.2° 1007.8 hPa 1.6 m/s 4.5 mm 20.9° 1006.9 hPa 1.6 m/s 0.0 mm 19.0° 1007.2 hPa 2.9 m/s
23:00 19.2° 1007.4 hPa 1.3 m/s 10.1 mm 19.6° 1006.5 hPa 1.9 m/s 33.0 mm 18.1° 1007.5 hPa 1.2 m/s 1.7 mm 19.5° 1007.2 hPa 1.1 m/s 0.0 mm 16.9° 1007.8 hPa 1.8 m/s
 04:56     21:48    Daglengte: 16:52 Woensdag 28 Jul
02:00 17.9° 1006.5 hPa 1.4 m/s 0.0 mm 17.9° 1005.3 hPa 1.3 m/s 34.4 mm 17.6° 1006.5 hPa 1.1 m/s 0.8 mm 17.7° 1006.7 hPa 1.5 m/s 0.0 mm 15.6° 1007.2 hPa 1.7 m/s
05:00 17.3° 1005.5 hPa 1.9 m/s 0.0 mm 16.4° 1004.5 hPa 1.9 m/s 34.7 mm 17.1° 1005.5 hPa 1.2 m/s 0.0 mm 17.3° 1006.0 hPa 1.9 m/s 0.0 mm 15.2° 1006.4 hPa 1.6 m/s
08:00 18.6° 1005.3 hPa 2.4 m/s 0.0 mm 18.9° 1003.9 hPa 1.9 m/s 35.2 mm 18.3° 1004.7 hPa 2.3 m/s 0.0 mm 18.6° 1006.0 hPa 2.5 m/s 0.0 mm 17.6° 1006.2 hPa 2.5 m/s
11:00 18.7° 1004.7 hPa 3.5 m/s 9.9 mm 20.2° 1003.2 hPa 4.4 m/s 37.1 mm 18.5° 1004.7 hPa 3.6 m/s 1.3 mm 18.6° 1005.9 hPa 3.3 m/s
14:00 19.6° 1004.2 hPa 4.1 m/s 12.0 mm 20.6° 1002.8 hPa 6.2 m/s 37.4 mm 19.5° 1004.0 hPa 3.9 m/s 0.2 mm 21.6° 1005.3 hPa 4.7 m/s
17:00 20.0° 1003.4 hPa 3.7 m/s 0.0 mm 20.2° 1002.2 hPa 6.4 m/s 37.4 mm 20.1° 1003.2 hPa 3.6 m/s 0.0 mm 21.2° 1004.7 hPa 4.0 m/s
20:00 18.9° 1002.1 hPa 3.1 m/s 0.0 mm 19.0° 1000.9 hPa 6.6 m/s 37.4 mm 18.7° 1001.7 hPa 2.7 m/s 0.0 mm 19.1° 1003.7 hPa 2.6 m/s
23:00 17.4° 1001.4 hPa 2.3 m/s 0.0 mm 17.6° 1000.6 hPa 5.0 m/s 37.4 mm 16.7° 1000.8 hPa 1.4 m/s 0.0 mm 15.6° 1003.2 hPa 1.9 m/s
 04:58     21:45    Daglengte: 16:47 Donderdag 29 Jul
02:00 16.9° 1000.2 hPa 2.6 m/s 4.3 mm 17.1° 1000.0 hPa 5.2 m/s 37.4 mm 16.2° 998.5 hPa 1.5 m/s 0.1 mm 14.7° 1001.9 hPa 1.9 m/s
05:00 16.5° 998.6 hPa 2.6 m/s 8.1 mm 16.5° 998.4 hPa 3.2 m/s 37.5 mm 15.9° 996.6 hPa 1.4 m/s 0.7 mm 14.5° 1000.5 hPa 2.5 m/s
08:00 16.9° 998.0 hPa 3.2 m/s 14.4 mm 16.9° 998.2 hPa 4.5 m/s 40.2 mm 16.6° 995.0 hPa 2.4 m/s 1.5 mm 16.2° 999.1 hPa 4.0 m/s
11:00 17.0° 995.0 hPa 4.4 m/s 16.3 mm 18.7° 997.8 hPa 6.6 m/s 43.9 mm 16.5° 994.3 hPa 3.8 m/s 2.5 mm 18.2° 998.0 hPa 4.4 m/s
14:00 17.3° 994.1 hPa 4.5 m/s 17.2 mm 20.1° 996.3 hPa 6.0 m/s 47.2 mm 16.6° 993.5 hPa 4.1 m/s 2.1 mm 13.8° 997.2 hPa 2.4 m/s
17:00 15.5° 995.4 hPa 3.0 m/s 29.0 mm 15.5° 995.4 hPa 3.0 m/s 29.0 mm
20:00 14.3° 994.2 hPa 3.5 m/s 29.8 mm 14.3° 994.2 hPa 3.5 m/s 29.8 mm
23:00 13.2° 993.3 hPa 2.6 m/s 30.1 mm 13.2° 993.3 hPa 2.6 m/s 30.1 mm
 05:00     21:43    Daglengte: 16:43 Vrijdag 30 Jul
02:00 13.7° 991.7 hPa 2.7 m/s 30.9 mm 13.7° 991.7 hPa 2.7 m/s 30.9 mm
05:00 13.7° 990.9 hPa 2.3 m/s 30.9 mm 13.7° 990.9 hPa 2.3 m/s 30.9 mm
08:00 15.9° 991.5 hPa 1.6 m/s 30.9 mm 15.9° 991.5 hPa 1.6 m/s 30.9 mm
11:00 20.7° 992.3 hPa 2.3 m/s 30.9 mm 20.7° 992.3 hPa 2.3 m/s 30.9 mm
14:00 22.1° 993.1 hPa 2.3 m/s 31.0 mm 22.1° 993.1 hPa 2.3 m/s 31.0 mm
17:00 21.8° 994.0 hPa 2.7 m/s 31.1 mm 21.8° 994.0 hPa 2.7 m/s 31.1 mm
20:00 19.5° 994.9 hPa 1.7 m/s 31.1 mm 19.5° 994.9 hPa 1.7 m/s 31.1 mm
23:00 14.5° 996.3 hPa 0.9 m/s 31.1 mm 14.5° 996.3 hPa 0.9 m/s 31.1 mm
 05:03     21:41    Daglengte: 16:38 Zaterdag 31 Jul
02:00 13.2° 997.2 hPa 1.7 m/s 31.1 mm 13.2° 997.2 hPa 1.7 m/s 31.1 mm
05:00 12.5° 997.3 hPa 1.9 m/s 31.1 mm 12.5° 997.3 hPa 1.9 m/s 31.1 mm
08:00 16.2° 997.2 hPa 3.3 m/s 31.1 mm 16.2° 997.2 hPa 3.3 m/s 31.1 mm
11:00 19.6° 997.2 hPa 3.8 m/s 31.1 mm 19.6° 997.2 hPa 3.8 m/s 31.1 mm
14:00 20.7° 996.8 hPa 5.5 m/s 31.2 mm 20.7° 996.8 hPa 5.5 m/s 31.2 mm
17:00 18.8° 997.6 hPa 5.5 m/s 31.3 mm 18.8° 997.6 hPa 5.5 m/s 31.3 mm
20:00 17.0° 997.7 hPa 4.5 m/s 31.3 mm 17.0° 997.7 hPa 4.5 m/s 31.3 mm
23:00 13.9° 997.5 hPa 3.0 m/s 31.3 mm 13.9° 997.5 hPa 3.0 m/s 31.3 mm
 05:05     21:38    Daglengte: 16:33 Zondag 01 Aug
02:00 12.0° 996.6 hPa 2.2 m/s 31.3 mm 12.0° 996.6 hPa 2.2 m/s 31.3 mm
05:00 11.9° 996.1 hPa 1.8 m/s 31.3 mm 11.9° 996.1 hPa 1.8 m/s 31.3 mm
08:00 15.5° 995.6 hPa 2.3 m/s 31.3 mm 15.5° 995.6 hPa 2.3 m/s 31.3 mm
11:00 18.3° 995.7 hPa 3.7 m/s 31.4 mm 18.3° 995.7 hPa 3.7 m/s 31.4 mm
14:00 18.2° 995.8 hPa 4.5 m/s 31.4 mm 18.2° 995.8 hPa 4.5 m/s 31.4 mm
17:00 18.2° 995.6 hPa 3.6 m/s 31.5 mm 18.2° 995.6 hPa 3.6 m/s 31.5 mm
20:00 16.4° 995.3 hPa 2.0 m/s 31.8 mm 16.4° 995.3 hPa 2.0 m/s 31.8 mm
23:00 13.0° 995.5 hPa 0.7 m/s 32.2 mm 13.0° 995.5 hPa 0.7 m/s 32.2 mm
 05:07     21:36    Daglengte: 16:29 Maandag 02 Aug
02:00 11.4° 995.6 hPa 1.9 m/s 32.2 mm 11.4° 995.6 hPa 1.9 m/s 32.2 mm
05:00 10.6° 996.4 hPa 2.0 m/s 32.2 mm 10.6° 996.4 hPa 2.0 m/s 32.2 mm
08:00 12.5° 997.1 hPa 2.7 m/s 32.2 mm 12.5° 997.1 hPa 2.7 m/s 32.2 mm
11:00 16.1° 998.0 hPa 2.9 m/s 32.2 mm 16.1° 998.0 hPa 2.9 m/s 32.2 mm
14:00 17.1° 998.6 hPa 2.0 m/s 32.3 mm 17.1° 998.6 hPa 2.0 m/s 32.3 mm
20:00 15.7° 998.7 hPa 2.8 m/s 32.4 mm 15.7° 998.7 hPa 2.8 m/s 32.4 mm
 05:09     21:34    Daglengte: 16:25 Dinsdag 03 Aug
02:00 10.8° 999.4 hPa 0.8 m/s 32.8 mm 10.8° 999.4 hPa 0.8 m/s 32.8 mm
08:00 12.6° 1002.1 hPa 2.2 m/s 32.8 mm 12.6° 1002.1 hPa 2.2 m/s 32.8 mm
14:00 18.8° 1002.9 hPa 4.2 m/s 32.8 mm 18.8° 1002.9 hPa 4.2 m/s 32.8 mm
20:00 18.1° 1002.6 hPa 5.3 m/s 32.9 mm 18.1° 1002.6 hPa 5.3 m/s 32.9 mm
 05:11     21:31    Daglengte: 16:20 Woensdag 04 Aug
02:00 13.8° 1004.4 hPa 4.1 m/s 32.9 mm 13.8° 1004.4 hPa 4.1 m/s 32.9 mm
08:00 16.1° 1004.1 hPa 2.4 m/s 33.0 mm 16.1° 1004.1 hPa 2.4 m/s 33.0 mm
14:00 15.2° 1000.5 hPa 2.9 m/s 37.7 mm 15.2° 1000.5 hPa 2.9 m/s 37.7 mm
20:00 15.5° 998.1 hPa 3.8 m/s 51.4 mm 15.5° 998.1 hPa 3.8 m/s 51.4 mm
 05:14     21:29    Daglengte: 16:15 Donderdag 05 Aug
02:00 14.0° 996.3 hPa 3.5 m/s 57.4 mm 14.0° 996.3 hPa 3.5 m/s 57.4 mm
08:00 14.4° 993.8 hPa 3.0 m/s 68.9 mm 14.4° 993.8 hPa 3.0 m/s 68.9 mm
14:00 18.5° 1007.1 hPa 1.4 m/s 2.1 mm
20:00 16.7° 1006.2 hPa 1.2 m/s 1.5 mm
 05:16     21:26    Daglengte: 16:10 Vrijdag 06 Aug
02:00 13.0° 1006.7 hPa 0.6 m/s 0.5 mm
08:00 14.4° 1006.2 hPa 0.8 m/s 1.8 mm
14:00 18.7° 1005.7 hPa 1.0 m/s 0.6 mm
20:00 16.9° 1004.8 hPa 1.1 m/s 1.3 mm
 05:18     21:24    Daglengte: 16:06 Zaterdag 07 Aug
02:00 13.2° 1005.3 hPa 0.5 m/s 0.5 mm
08:00 14.9° 1005.2 hPa 0.6 m/s 0.6 mm
14:00 19.0° 1005.1 hPa 2.5 m/s 1.5 mm
20:00 17.0° 1004.7 hPa 1.9 m/s 1.0 mm
 05:20     21:21    Daglengte: 16:01 Zondag 08 Aug
02:00 13.1° 1005.8 hPa 0.4 m/s 0.6 mm
08:00 14.8° 1006.2 hPa 0.5 m/s 0.5 mm
14:00 19.4° 1006.7 hPa 1.9 m/s 1.0 mm
20:00 17.1° 1006.7 hPa 1.8 m/s 0.9 mm
 05:23     21:18    Daglengte: 15:55 Maandag 09 Aug
02:00 13.8° 1007.9 hPa 0.8 m/s 0.4 mm
08:00 15.2° 1008.2 hPa 0.8 m/s 0.4 mm
14:00 19.4° 1008.7 hPa 2.5 m/s 0.8 mm